Location: Caltech
(34.1382°N, 118.1253°W)
Time: 10:27:35
(UTC-07:00)

Transit 2A - Visible Passes

Search period start: 31 July 2015 00:00
Search period end: 10 August 2015 00:00
Orbit: 597 x 963 km, 66.7° (Epoch: 30 July)

Date Brightness Start Highest point End Pass type
(mag) Time Alt. Az. Time Alt. Az. Time Alt. Az.
06 Aug 8.5 05:19:04 10° SSE 05:23:49 24° ESE 05:28:33 10° NE visible
07 Aug 8.8 04:46:38 10° SE 04:50:04 16° ESE 04:53:44 10° ENE visible
09 Aug 6.9 05:19:17 10° S 05:25:21 58° ESE 05:31:03 10° NE visible
